Back to catalog

DELTA 1 DEB

AliveUNKNOWN
NORAD 25270·DEBRIS·🇺🇸 United States

Launched Jul 4, 1968 from Vandenberg Space Force Base

Loading…

Next Passes (next 24 hours)

TLE

FreshSource: Space-Track

Epoch: Sep 6, 2026, 15:40 UTC

1 25270U 68055E   26249.65332789  .00001128  00000-0  20326-2 0  9993
2 25270 120.5294 157.5829 2229414 358.6782   0.8874 10.04720668453093

Track DELTA 1 DEB in real time with AllMySat

Download on the App Store